Time,TemperatureF,DewpointF,PressureIn,WindDirection,WindDirectionDegrees,WindSpeedMPH,WindSpeedGustMPH,Humidity,HourlyPrecipIn,Conditions,Clouds,dailyrainin,SoftwareType,DateUTC
2013-03-05 00:00:00,44.0,29.0,29.94,North,350,3.0,3.0,54,-99.99,,,-99.99,,2013-03-05 08:00:00,
2013-03-05 00:21:00,44.0,29.0,29.94,North,350,3.0,3.0,54,-99.99,,,-99.99,,2013-03-05 08:21:00,
2013-03-05 00:31:00,44.0,29.0,29.94,North,350,3.0,3.0,54,-99.99,,,-99.99,,2013-03-05 08:31:00,
2013-03-05 00:41:00,44.0,29.0,29.94,North,350,3.0,3.0,54,-99.99,,,-99.99,,2013-03-05 08:41:00,
2013-03-05 00:51:00,44.0,29.0,29.94,North,350,3.0,3.0,54,-99.99,,,-99.99,,2013-03-05 08:51:00,
2013-03-05 01:00:00,45.0,36.0,29.92,North,350,11.0,11.0,70,-99.99,,,-99.99,,2013-03-05 09:00:00,
2013-03-05 01:31:00,45.0,36.0,29.92,North,350,11.0,11.0,70,-99.99,,,-99.99,,2013-03-05 09:31:00,
2013-03-05 01:42:00,45.0,36.0,29.92,North,350,11.0,11.0,70,-99.99,,,-99.99,,2013-03-05 09:42:00,
2013-03-05 01:51:00,45.0,36.0,29.92,North,350,11.0,11.0,70,-99.99,,,-99.99,,2013-03-05 09:51:00,
2013-03-05 02:00:00,45.0,35.0,29.92,North,360,8.0,8.0,67,-99.99,,,-99.99,,2013-03-05 10:00:00,
2013-03-05 02:21:00,45.0,35.0,29.92,North,360,8.0,8.0,67,-99.99,,,-99.99,,2013-03-05 10:21:00,
2013-03-05 02:31:00,45.0,35.0,29.92,North,360,8.0,8.0,67,-99.99,,,-99.99,,2013-03-05 10:31:00,
2013-03-05 02:41:00,45.0,35.0,29.92,North,360,8.0,8.0,67,-99.99,,,-99.99,,2013-03-05 10:41:00,
2013-03-05 02:51:00,45.0,35.0,29.92,North,360,8.0,8.0,67,-99.99,,,-99.99,,2013-03-05 10:51:00,
2013-03-05 03:00:00,44.0,36.0,29.89,NNE,30,7.0,7.0,73,-99.99,,,-99.99,,2013-03-05 11:00:00,
2013-03-05 03:21:00,44.0,36.0,29.89,NNE,30,7.0,7.0,73,-99.99,,,-99.99,,2013-03-05 11:21:00,
2013-03-05 03:32:00,44.0,36.0,29.89,NNE,30,7.0,7.0,73,-99.99,,,-99.99,,2013-03-05 11:32:00,
2013-03-05 03:41:00,44.0,36.0,29.89,NNE,30,7.0,7.0,73,-99.99,,,-99.99,,2013-03-05 11:41:00,
2013-03-05 03:52:00,44.0,36.0,29.89,NNE,30,7.0,7.0,73,-99.99,,,-99.99,,2013-03-05 11:52:00,
2013-03-05 04:22:00,43.0,37.0,29.88,NNW,330,8.0,9.0,79,-99.99,,,-99.99,,2013-03-05 12:22:00,
2013-03-05 04:32:00,43.0,37.0,29.88,NNW,330,8.0,9.0,79,-99.99,,,-99.99,,2013-03-05 12:32:00,
2013-03-05 04:41:00,43.0,37.0,29.88,NNW,330,8.0,9.0,79,-99.99,,,-99.99,,2013-03-05 12:41:00,
2013-03-05 05:00:00,44.0,35.0,29.86,NNW,340,6.0,7.0,70,-99.99,,,-99.99,,2013-03-05 13:00:00,
2013-03-05 05:21:00,44.0,35.0,29.86,NNW,340,6.0,7.0,70,-99.99,,,-99.99,,2013-03-05 13:21:00,
2013-03-05 05:31:00,44.0,35.0,29.86,NNW,340,6.0,7.0,70,-99.99,,,-99.99,,2013-03-05 13:31:00,
2013-03-05 05:41:00,44.0,35.0,29.86,NNW,340,6.0,7.0,70,-99.99,,,-99.99,,2013-03-05 13:41:00,
2013-03-05 05:51:00,44.0,35.0,29.86,NNW,340,6.0,7.0,70,-99.99,,,-99.99,,2013-03-05 13:51:00,
2013-03-05 06:00:00,43.0,36.0,29.84,North,360,7.0,7.0,76,-99.99,,,-99.99,,2013-03-05 14:00:00,
2013-03-05 06:21:00,43.0,36.0,29.84,North,360,7.0,7.0,76,-99.99,,,-99.99,,2013-03-05 14:21:00,
2013-03-05 06:31:00,43.0,36.0,29.84,North,360,7.0,7.0,76,-99.99,,,-99.99,,2013-03-05 14:31:00,
2013-03-05 06:41:00,43.0,36.0,29.84,North,360,7.0,7.0,76,-99.99,,,-99.99,,2013-03-05 14:41:00,
2013-03-05 06:52:00,43.0,36.0,29.84,North,360,7.0,7.0,76,-99.99,,,-99.99,,2013-03-05 14:52:00,
2013-03-05 07:00:00,44.0,35.0,29.84,WNW,290,6.0,7.0,72,-99.99,,,-99.99,,2013-03-05 15:00:00,
2013-03-05 07:21:00,44.0,35.0,29.84,WNW,290,6.0,7.0,72,-99.99,,,-99.99,,2013-03-05 15:21:00,
2013-03-05 07:31:00,44.0,35.0,29.84,WNW,290,6.0,7.0,72,-99.99,,,-99.99,,2013-03-05 15:31:00,
2013-03-05 07:42:00,44.0,35.0,29.84,WNW,290,6.0,7.0,72,-99.99,,,-99.99,,2013-03-05 15:42:00,
2013-03-05 07:51:00,44.0,35.0,29.84,WNW,290,6.0,7.0,72,-99.99,,,-99.99,,2013-03-05 15:51:00,
2013-03-05 08:00:00,44.0,35.0,29.85,NNW,330,5.0,5.0,68,-99.99,,,-99.99,,2013-03-05 16:00:00,
2013-03-05 08:31:00,44.0,35.0,29.85,NNW,330,5.0,5.0,68,-99.99,,,-99.99,,2013-03-05 16:31:00,
2013-03-05 08:41:00,44.0,35.0,29.85,NNW,330,5.0,5.0,68,-99.99,,,-99.99,,2013-03-05 16:41:00,
2013-03-05 08:51:00,44.0,35.0,29.85,NNW,330,5.0,5.0,68,-99.99,,,-99.99,,2013-03-05 16:51:00,
2013-03-05 09:00:00,44.0,37.0,29.86,NE,50,3.0,5.0,74,-99.99,,,-99.99,,2013-03-05 17:00:00,
2013-03-05 09:21:00,44.0,37.0,29.86,NE,50,3.0,5.0,74,-99.99,,,-99.99,,2013-03-05 17:21:00,
2013-03-05 09:31:00,44.0,37.0,29.86,NE,50,3.0,5.0,74,-99.99,,,-99.99,,2013-03-05 17:31:00,
2013-03-05 09:41:00,44.0,37.0,29.86,NE,50,3.0,5.0,74,-99.99,,,-99.99,,2013-03-05 17:41:00,
2013-03-05 09:52:00,44.0,37.0,29.86,NE,50,3.0,5.0,74,-99.99,,,-99.99,,2013-03-05 17:52:00,
2013-03-05 10:00:00,45.0,36.0,29.85,NNE,20,7.0,7.0,70,-99.99,,,-99.99,,2013-03-05 18:00:00,
2013-03-05 10:21:00,45.0,36.0,29.85,NNE,20,7.0,7.0,70,-99.99,,,-99.99,,2013-03-05 18:21:00,
2013-03-05 10:31:00,45.0,36.0,29.85,NNE,20,7.0,7.0,70,-99.99,,,-99.99,,2013-03-05 18:31:00,
2013-03-05 10:41:00,45.0,36.0,29.85,NNE,20,7.0,7.0,70,-99.99,,,-99.99,,2013-03-05 18:41:00,
2013-03-05 10:52:00,45.0,36.0,29.85,NNE,20,7.0,7.0,70,-99.99,,,-99.99,,2013-03-05 18:52:00,
2013-03-05 11:00:00,45.0,38.0,29.84,NNE,20,8.0,8.0,74,-99.99,,,-99.99,,2013-03-05 19:00:00,
2013-03-05 11:21:00,45.0,38.0,29.84,NNE,20,8.0,8.0,74,-99.99,,,-99.99,,2013-03-05 19:21:00,
2013-03-05 11:31:00,45.0,38.0,29.84,NNE,20,8.0,8.0,74,-99.99,,,-99.99,,2013-03-05 19:31:00,
2013-03-05 11:41:00,45.0,38.0,29.84,NNE,20,8.0,8.0,74,-99.99,,,-99.99,,2013-03-05 19:41:00,
2013-03-05 11:51:00,45.0,38.0,29.84,NNE,20,8.0,8.0,74,-99.99,,,-99.99,,2013-03-05 19:51:00,
2013-03-05 12:00:00,46.0,38.0,29.83,North,350,7.0,8.0,73,-99.99,,,-99.99,,2013-03-05 20:00:00,
2013-03-05 12:21:00,46.0,38.0,29.83,North,350,7.0,8.0,73,-99.99,,,-99.99,,2013-03-05 20:21:00,
2013-03-05 12:31:00,46.0,38.0,29.83,North,350,7.0,8.0,73,-99.99,,,-99.99,,2013-03-05 20:31:00,
2013-03-05 12:41:00,46.0,38.0,29.83,North,350,7.0,8.0,73,-99.99,,,-99.99,,2013-03-05 20:41:00,
2013-03-05 12:52:00,46.0,38.0,29.83,North,350,7.0,8.0,73,-99.99,,,-99.99,,2013-03-05 20:52:00,
2013-03-05 13:00:00,47.0,40.0,29.82,NNW,340,3.0,5.0,76,-99.99,,,-99.99,,2013-03-05 21:00:00,
2013-03-05 13:21:00,47.0,40.0,29.82,NNW,340,3.0,5.0,76,-99.99,,,-99.99,,2013-03-05 21:21:00,
2013-03-05 13:31:00,47.0,40.0,29.82,NNW,340,3.0,5.0,76,-99.99,,,-99.99,,2013-03-05 21:31:00,
2013-03-05 13:41:00,47.0,40.0,29.82,NNW,340,3.0,5.0,76,-99.99,,,-99.99,,2013-03-05 21:41:00,
2013-03-05 13:52:00,47.0,40.0,29.82,NNW,340,3.0,5.0,76,-99.99,,,-99.99,,2013-03-05 21:52:00,
2013-03-05 14:00:00,48.0,39.0,29.80,North,0,0.0,1.0,70,-99.99,,,-99.99,,2013-03-05 22:00:00,
2013-03-05 14:21:00,48.0,39.0,29.80,North,0,0.0,1.0,70,-99.99,,,-99.99,,2013-03-05 22:21:00,
2013-03-05 14:31:00,48.0,39.0,29.80,North,0,0.0,1.0,70,-99.99,,,-99.99,,2013-03-05 22:31:00,
2013-03-05 14:41:00,48.0,39.0,29.80,North,0,0.0,1.0,70,-99.99,,,-99.99,,2013-03-05 22:41:00,
2013-03-05 14:51:00,48.0,39.0,29.80,North,0,0.0,1.0,70,-99.99,,,-99.99,,2013-03-05 22:51:00,
2013-03-05 15:00:00,48.0,39.0,29.80,North,0,0.0,1.0,71,-99.99,,,-99.99,,2013-03-05 23:00:00,
2013-03-05 15:21:00,48.0,39.0,29.80,North,0,0.0,1.0,71,-99.99,,,-99.99,,2013-03-05 23:21:00,
2013-03-05 15:32:00,48.0,39.0,29.80,North,0,0.0,1.0,71,-99.99,,,-99.99,,2013-03-05 23:32:00,
2013-03-05 15:41:00,48.0,39.0,29.80,North,0,0.0,1.0,71,-99.99,,,-99.99,,2013-03-05 23:41:00,
2013-03-05 15:52:00,48.0,39.0,29.80,North,0,0.0,1.0,71,-99.99,,,-99.99,,2013-03-05 23:52:00,
2013-03-05 16:00:00,48.0,38.0,29.79,WSW,250,8.0,8.0,69,-99.99,,,-99.99,,2013-03-06 00:00:00,
2013-03-05 16:21:00,48.0,38.0,29.79,WSW,250,8.0,8.0,69,-99.99,,,-99.99,,2013-03-06 00:21:00,
2013-03-05 16:31:00,48.0,38.0,29.79,WSW,250,8.0,8.0,69,-99.99,,,-99.99,,2013-03-06 00:31:00,
2013-03-05 16:41:00,48.0,38.0,29.79,WSW,250,8.0,8.0,69,-99.99,,,-99.99,,2013-03-06 00:41:00,
2013-03-05 16:51:00,48.0,38.0,29.79,WSW,250,8.0,8.0,69,-99.99,,,-99.99,,2013-03-06 00:51:00,